Weather History for Kansas City, MO

Change the Weather History Date:

Thursday, July 18, 2013

  Actual Average Record
Temperature  
Mean Temperature 87 °F -  
Max Temperature 96 °F 88 °F 106 °F (2012)
Min Temperature 78 °F 70 °F 64 °F (2004)
Cooling Degree Days 22    
Growing Degree Days 37 (Base 50)    
Moisture  
Dew Point 67 °F    
Average Humidity 52    
Maximum Humidity 76    
Minimum Humidity 35    
Precipitation  
Precipitation 0.00 in - - ()
Sea Level Pressure  
Sea Level Pressure 30.08 in    
Wind  
Wind Speed 5 mph (SW)    
Max Wind Speed 10 mph    
Max Gust Speed 17 mph    
Visibility 10 miles    
Events      
Averages and records for this station are not official NWS values.
T = Trace of Precipitation, MM = Missing Value Source: NWS Daily Summary

Daily Weather History Graph

Daily Weather History Graph

Search for Another Location

Airport:

Trip Planner

Search our weather history database for the weather conditions in past years. The results will help you decide how hot, cold, wet, or windy it might be!

Date:

Astronomy

Jul. 18, 2013 Rise Set
Actual Time 6:07 AM CDT 8:41 PM CDT
Civil Twilight 5:36 AM CDT 9:12 PM CDT
Nautical Twilight 4:57 AM CDT 9:51 PM CDT
Astronomical Twilight 4:14 AM CDT 10:34 PM CDT
Moon 4:39 PM CDT (7/18) 1:57 AM CDT (7/18)
Length of Visible Light 15h 36m
Length of Day
14h 34m
Waxing Gibbous, 77% of the Moon is Illuminated
Jul 18
Waxing Gibbous
Jul 22
Full
Jul 29
Last Quarter
Aug 6
New
Aug 14
First Quarter

Hourly Weather History & Observations

Time (CDT) Temp. Heat Index Dew Point Humidity Pressure Visibility Wind Dir Wind Speed Gust Speed Precip Events Conditions
12:54 AM 84.0 °F 88.4 °F 70.0 °F 63% 30.18 in 10.0 mi ESE 8.1 mph - N/A   Clear
1:54 AM 82.0 °F 85.5 °F 69.1 °F 65% 30.18 in 10.0 mi Calm Calm - N/A   Clear
2:54 AM 80.1 °F 82.9 °F 69.1 °F 69% 30.17 in 10.0 mi ENE 3.5 mph - N/A   Clear
3:54 AM 81.0 °F 84.1 °F 69.1 °F 67% 30.16 in 10.0 mi Calm Calm - N/A   Clear
4:54 AM 78.1 °F - 70.0 °F 76% 30.15 in 10.0 mi WSW 4.6 mph - N/A   Clear
5:54 AM 78.1 °F - 70.0 °F 76% 30.15 in 10.0 mi Calm Calm - N/A   Clear
6:54 AM 78.1 °F - 69.1 °F 74% 30.16 in 10.0 mi Calm Calm - N/A   Clear
7:54 AM 81.0 °F 84.1 °F 69.1 °F 67% 30.16 in 10.0 mi Calm Calm - N/A   Clear
8:54 AM 84.0 °F 87.0 °F 68.0 °F 58% 30.16 in 10.0 mi Calm Calm - N/A   Clear
9:54 AM 87.1 °F 91.3 °F 69.1 °F 55% 30.14 in 10.0 mi West 3.5 mph - N/A   Clear
10:54 AM 89.1 °F 92.9 °F 68.0 °F 50% 30.13 in 10.0 mi West 4.6 mph - N/A   Clear
11:54 AM 91.0 °F 95.2 °F 68.0 °F 47% 30.12 in 10.0 mi WSW 9.2 mph - N/A   Partly Cloudy
12:54 PM 93.0 °F 96.4 °F 66.9 °F 42% 30.10 in 10.0 mi SW 8.1 mph 17.3 mph N/A   Clear
1:54 PM 95.0 °F 97.9 °F 66.0 °F 38% 30.07 in 10.0 mi SSW 10.4 mph - N/A   Scattered Clouds
2:54 PM 95.0 °F 97.9 °F 66.0 °F 38% 30.04 in 10.0 mi WSW 6.9 mph - N/A   Partly Cloudy
3:54 PM 95.0 °F 97.4 °F 64.9 °F 37% 30.01 in 10.0 mi SSW 4.6 mph - N/A   Mostly Cloudy
4:54 PM 96.1 °F 98.3 °F 64.0 °F 35% 29.99 in 10.0 mi WSW 10.4 mph 17.3 mph N/A   Partly Cloudy
5:54 PM 96.1 °F 98.3 °F 64.0 °F 35% 29.98 in 10.0 mi SSW 9.2 mph - N/A   Scattered Clouds
6:54 PM 93.9 °F 95.2 °F 63.0 °F 36% 29.96 in 10.0 mi SSW 10.4 mph - N/A   Partly Cloudy
7:54 PM 91.9 °F 92.9 °F 63.0 °F 38% 29.96 in 10.0 mi SSW 10.4 mph - N/A   Clear
8:54 PM 90.0 °F 90.6 °F 63.0 °F 40% 29.96 in 10.0 mi SSW 8.1 mph - N/A   Clear
9:54 PM 87.1 °F 88.3 °F 64.0 °F 46% 29.98 in 10.0 mi South 6.9 mph - N/A   Clear
10:54 PM 86.0 °F 87.6 °F 64.9 °F 49% 29.98 in 10.0 mi SSW 8.1 mph - N/A   Clear
11:54 PM 84.0 °F 85.8 °F 64.9 °F 53% 29.97 in 10.0 mi SSW 4.6 mph - N/A   Clear